Location: Caltech
(34.1382°N, 118.1253°W)
Time: 03:37:46
(UTC-07:00)

AO-27 - Visible Passes

Search period start: 20 April 2018 00:00
Search period end: 30 April 2018 00:00
Orbit: 785 x 798 km, 98.9° (Epoch: 19 April)

Date Brightness Start Highest point End Pass type
(mag) Time Alt. Az. Time Alt. Az. Time Alt. Az.
20 Apr 10.1 03:52:36 10° NE 03:56:06 18° E 03:59:33 10° SE visible
20 Apr 8.1 05:30:49 10° N 05:35:42 44° WNW 05:40:35 10° SW visible
21 Apr 7.6 05:01:32 10° NNE 05:06:45 87° WNW 05:11:55 10° SSW visible
22 Apr 8.6 04:32:40 10° NNE 04:37:39 47° E 04:42:37 10° S visible
23 Apr 9.7 04:04:19 10° NE 04:08:28 24° E 04:12:34 10° SSE visible
23 Apr 8.4 05:43:18 10° N 05:47:55 34° WNW 05:52:30 10° SW visible
24 Apr 10.4 03:37:25 10° ENE 03:39:09 12° E 03:40:52 10° ESE visible
24 Apr 7.7 05:13:52 10° N 05:19:00 66° WNW 05:24:07 10° SSW visible
25 Apr 8.1 04:44:49 10° NNE 04:49:58 63° ESE 04:55:04 10° S visible
26 Apr 9.3 04:16:14 10° NE 04:20:49 31° E 04:25:22 10° SSE visible
27 Apr 10.2 03:48:27 10° ENE 03:51:33 16° E 03:54:37 10° SE visible
27 Apr 7.9 05:26:15 10° N 05:31:14 50° WNW 05:36:12 10° SSW visible
28 Apr 7.7 04:57:03 10° NNE 05:02:15 83° ESE 05:07:25 10° SSW visible
29 Apr 8.8 04:28:15 10° NNE 04:33:09 41° E 04:38:00 10° S visible
